• In Czech Republic
  • List of Countries
  • For 7 days
  • Water Temperature
  • Satellite Maps
  • Weather Map
  • Weather Widgets
  • user-avatar
    Login

    Hourly Weather Nashavar

    Today, 20 August, Monday

    Time Temperature Precipitation Wind Pressure Humidity
    00:00 +37°C° 0 mm 2 mps 721 mmHg 45%
    01:00 +37°C° 0 mm 2 mps 722 mmHg 47%
    02:00 +36°C° 0 mm 2 mps 722 mmHg 48%
    03:00 +35°C° 0 mm 1 mps 722 mmHg 50%
    04:00 +34°C° 0 mm 1 mps 722 mmHg 52%
    05:00 +34°C° 0 mm 1 mps 722 mmHg 54%
    06:00 +34°C° 0 mm 1 mps 722 mmHg 52%
    07:00 +35°C° 0 mm 1 mps 723 mmHg 50%
    08:00 +35°C° 0 mm 1 mps 723 mmHg 48%
    09:00 +36°C° 0 mm 1 mps 723 mmHg 44%
    10:00 +39°C° 0 mm 1 mps 723 mmHg 39%
    11:00 +40°C° 0 mm 1 mps 723 mmHg 35%
    12:00 +41°C° 0 mm 1 mps 723 mmHg 32%
    13:00 +42°C° 0 mm 1 mps 723 mmHg 29%
    14:00 +43°C° 0 mm 1 mps 722 mmHg 26%
    15:00 +43°C° 0 mm 1 mps 722 mmHg 26%
    16:00 +43°C° 0 mm 2 mps 722 mmHg 26%
    17:00 +43°C° 0 mm 2 mps 721 mmHg 25%
    18:00 +42°C° 0 mm 2 mps 721 mmHg 28%
    19:00 +41°C° 0 mm 2 mps 721 mmHg 31%
    20:00 +40°C° 0 mm 2 mps 721 mmHg 34%
    21:00 +39°C° 0 mm 2 mps 721 mmHg 36%
    22:00 +39°C° 0 mm 1 mps 722 mmHg 38%
    23:00 +37°C° 0 mm 1 mps 722 mmHg 40%

    Tomorrow, 21 August, Tuesday

    Time Temperature Precipitation Wind Pressure Humidity
    00:00 +37°C° 0 mm 1 mps 722 mmHg 41%
    01:00 +36°C° 0 mm 1 mps 721 mmHg 43%
    02:00 +36°C° 0 mm 1 mps 721 mmHg 44%
    03:00 +35°C° 0 mm 1 mps 721 mmHg 45%
    04:00 +35°C° 0 mm 1 mps 721 mmHg 46%
    05:00 +34°C° 0 mm 1 mps 721 mmHg 47%
    06:00 +35°C° 0 mm 1 mps 722 mmHg 42%
    07:00 +37°C° 0 mm 2 mps 722 mmHg 38%
    08:00 +37°C° 0 mm 2 mps 722 mmHg 34%
    09:00 +39°C° 0 mm 2 mps 722 mmHg 30%
    10:00 +40°C° 0 mm 2 mps 722 mmHg 25%
    11:00 +41°C° 0 mm 2 mps 722 mmHg 20%
    12:00 +42°C° 0 mm 2 mps 722 mmHg 19%
    13:00 +43°C° 0 mm 2 mps 722 mmHg 18%
    14:00 +44°C° 0 mm 1 mps 721 mmHg 17%
    15:00 +45°C° 0 mm 2 mps 721 mmHg 18%
    16:00 +45°C° 0 mm 2 mps 720 mmHg 19%
    17:00 +45°C° 0 mm 2 mps 720 mmHg 21%
    18:00 +43°C° 0 mm 2 mps 720 mmHg 23%
    19:00 +42°C° 0 mm 2 mps 721 mmHg 26%
    20:00 +40°C° 0 mm 2 mps 721 mmHg 29%
    21:00 +40°C° 0 mm 2 mps 721 mmHg 31%
    22:00 +39°C° 0 mm 2 mps 721 mmHg 32%
    23:00 +39°C° 0 mm 2 mps 721 mmHg 34%

    Day after tomorrow, 22 August, Wednesday

    Time Temperature Precipitation Wind Pressure Humidity
    00:00 +38°C° 0 mm 2 mps 721 mmHg 36%
    01:00 +37°C° 0 mm 2 mps 721 mmHg 37%
    02:00 +37°C° 0 mm 2 mps 721 mmHg 38%
    03:00 +36°C° 0.2 mm 2 mps 721 mmHg 41%
    04:00 +36°C° 0.2 mm 2 mps 721 mmHg 43%
    05:00 +35°C° 0.2 mm 2 mps 721 mmHg 46%
    06:00 +36°C° 0 mm 2 mps 721 mmHg 45%
    07:00 +35°C° 0 mm 1 mps 722 mmHg 45%
    08:00 +36°C° 0 mm 1 mps 722 mmHg 44%
    09:00 +38°C° 0 mm 2 mps 722 mmHg 41%
    10:00 +39°C° 0 mm 2 mps 722 mmHg 38%
    11:00 +40°C° 0 mm 2 mps 722 mmHg 35%
    12:00 +41°C° 0 mm 2 mps 722 mmHg 33%
    13:00 +42°C° 0 mm 2 mps 721 mmHg 30%
    14:00 +43°C° 0 mm 2 mps 721 mmHg 27%
    15:00 +43°C° 0 mm 2 mps 720 mmHg 28%
    16:00 +43°C° 0 mm 2 mps 720 mmHg 28%
    17:00 +43°C° 0 mm 2 mps 720 mmHg 28%
    18:00 +42°C° 0 mm 2 mps 720 mmHg 30%
    19:00 +42°C° 0 mm 2 mps 720 mmHg 33%
    20:00 +42°C° 0 mm 3 mps 721 mmHg 35%
    21:00 +40°C° 0 mm 2 mps 721 mmHg 37%
    22:00 +39°C° 0 mm 2 mps 721 mmHg 38%
    23:00 +39°C° 0 mm 2 mps 721 mmHg 40%

    23 August, Thursday

    Time Temperature Precipitation Wind Pressure Humidity
    00:00 +38°C° 0.1 mm 2 mps 721 mmHg 42%
    01:00 +38°C° 0.1 mm 2 mps 721 mmHg 44%
    02:00 +37°C° 0.1 mm 2 mps 721 mmHg 46%
    03:00 +36°C° 0.1 mm 2 mps 721 mmHg 48%
    04:00 +36°C° 0.1 mm 2 mps 720 mmHg 51%
    05:00 +35°C° 0.1 mm 2 mps 720 mmHg 53%
    06:00 +36°C° 0 mm 2 mps 721 mmHg 52%
    07:00 +35°C° 0 mm 1 mps 721 mmHg 50%
    08:00 +36°C° 0 mm 1 mps 721 mmHg 49%
    09:00 +37°C° 0 mm 1 mps 721 mmHg 45%
    10:00 +39°C° 0 mm 2 mps 721 mmHg 42%
    11:00 +40°C° 0 mm 2 mps 721 mmHg 38%
    12:00 +41°C° 0 mm 2 mps 721 mmHg 36%
    13:00 +42°C° 0 mm 2 mps 720 mmHg 33%
    14:00 +43°C° 0 mm 2 mps 720 mmHg 31%
    15:00 +43°C° 0 mm 2 mps 720 mmHg 31%
    16:00 +43°C° 0 mm 2 mps 720 mmHg 31%
    17:00 +44°C° 0 mm 3 mps 720 mmHg 31%
    18:00 +43°C° 0 mm 3 mps 720 mmHg 33%
    19:00 +42°C° 0 mm 3 mps 720 mmHg 36%
    20:00 +42°C° 0 mm 3 mps 720 mmHg 38%
    21:00 +40°C° 0.2 mm 3 mps 720 mmHg 41%
    22:00 +39°C° 0.2 mm 2 mps 721 mmHg 44%
    23:00 +38°C° 0.2 mm 2 mps 721 mmHg 46%

    24 August, Friday

    Time Temperature Precipitation Wind Pressure Humidity
    00:00 +37°C° 0.8 mm 2 mps 721 mmHg 50%
    01:00 +36°C° 0.8 mm 2 mps 720 mmHg 54%
    02:00 +35°C° 0.8 mm 2 mps 720 mmHg 58%
    03:00 +35°C° 0.3 mm 2 mps 720 mmHg 60%
    04:00 +34°C° 0.3 mm 2 mps 720 mmHg 62%
    05:00 +34°C° 0.3 mm 2 mps 720 mmHg 63%
    06:00 +33°C° 0 mm 1 mps 721 mmHg 61%
    07:00 +34°C° 0 mm 1 mps 721 mmHg 58%
    08:00 +34°C° 0 mm 1 mps 721 mmHg 56%
    09:00 +36°C° 0 mm 1 mps 721 mmHg 50%
    10:00 +38°C° 0 mm 2 mps 721 mmHg 44%
    11:00 +39°C° 0 mm 2 mps 721 mmHg 38%
    12:00 +40°C° 0 mm 2 mps 721 mmHg 36%
    13:00 +41°C° 0 mm 2 mps 721 mmHg 33%
    14:00 +43°C° 0 mm 3 mps 720 mmHg 31%
    15:00 +43°C° 0 mm 3 mps 720 mmHg 32%
    16:00 +43°C° 0 mm 3 mps 720 mmHg 33%
    17:00 +43°C° 0 mm 3 mps 719 mmHg 34%
    18:00 +42°C° 0.2 mm 3 mps 720 mmHg 37%
    19:00 +40°C° 0.2 mm 3 mps 720 mmHg 40%
    20:00 +39°C° 0.2 mm 3 mps 720 mmHg 42%
    21:00 +38°C° 0.6 mm 2 mps 720 mmHg 45%
    22:00 +37°C° 0.6 mm 2 mps 721 mmHg 48%
    23:00 +37°C° 0.6 mm 2 mps 721 mmHg 51%

    25 August, Saturday

    Time Temperature Precipitation Wind Pressure Humidity
    00:00 +36°C° 1.7 mm 2 mps 721 mmHg 54%
    01:00 +34°C° 1.7 mm 1 mps 721 mmHg 57%
    02:00 +33°C° 1.7 mm 1 mps 720 mmHg 60%
    03:00 +33°C° 0.5 mm 1 mps 721 mmHg 62%
    04:00 +34°C° 0.5 mm 2 mps 721 mmHg 63%
    05:00 +32°C° 0.5 mm 2 mps 721 mmHg 64%
    06:00 +32°C° 0.1 mm 1 mps 721 mmHg 62%
    07:00 +33°C° 0.1 mm 1 mps 721 mmHg 60%
    08:00 +33°C° 0.1 mm 1 mps 721 mmHg 58%
    09:00 +34°C° 0.1 mm 1 mps 721 mmHg 54%
    10:00 +36°C° 0.1 mm 2 mps 721 mmHg 50%
    11:00 +38°C° 0.1 mm 2 mps 721 mmHg 46%
    12:00 +38°C° 0.1 mm 2 mps 721 mmHg 43%
    13:00 +39°C° 0.1 mm 2 mps 721 mmHg 41%
    14:00 +40°C° 0.1 mm 2 mps 720 mmHg 38%
    15:00 +40°C° 0 mm 2 mps 720 mmHg 37%
    16:00 +40°C° 0 mm 2 mps 720 mmHg 37%
    17:00 +41°C° 0 mm 2 mps 719 mmHg 36%
    18:00 +40°C° 0.2 mm 2 mps 720 mmHg 39%
    19:00 +39°C° 0.2 mm 2 mps 720 mmHg 42%
    20:00 +38°C° 0.2 mm 2 mps 720 mmHg 44%
    21:00 +37°C° 0.9 mm 2 mps 720 mmHg 48%
    22:00 +36°C° 0.9 mm 2 mps 720 mmHg 51%
    23:00 +35°C° 0.9 mm 2 mps 721 mmHg 55%
    Show more